This is the latest recevied weather packets stored in our database for station/object KD8DNS. If no packets are shown the sender has not sent any weather packets the latest 10 day(s).
| Time | Temp. | Humidity | Pressure | Rain* | Wind** | Luminosity | Snow |
|---|---|---|---|---|---|---|---|
| 1788019143 | 28.33° C | 61% | 1025.5 hPa | 0 mm | - | 629 W/m² | - |
| 1788018838 | 28.33° C | 62% | 1025.8 hPa | 0 mm | - | 622 W/m² | - |
| 1788018533 | 28.33° C | 64% | 1025.7 hPa | 0 mm | - | 602 W/m² | - |
| 1788018237 | 28.33° C | 63% | 1025.6 hPa | 0 mm | - | 582 W/m² | - |
| 1788017928 | 27.78° C | 62% | 1025.5 hPa | 0 mm | - | 595 W/m² | - |
| 1788017624 | 27.78° C | 63% | 1025.7 hPa | 0 mm | - | 612 W/m² | - |
| 1788017320 | 27.78° C | 64% | 1025.5 hPa | 0 mm | - | 547 W/m² | - |
| 1788017017 | 27.78° C | 63% | 1025.7 hPa | 0 mm | - | 538 W/m² | - |
| 1788016716 | 27.22° C | 65% | 1025.3 hPa | 0 mm | - | 553 W/m² | - |
| 1788016413 | 26.67° C | 67% | 1025.6 hPa | 0 mm | - | 525 W/m² | - |
| 1788016108 | 26.67° C | 67% | 1025.6 hPa | 0 mm | - | 459 W/m² | - |
| 1788015806 | 26.67° C | 67% | 1025.4 hPa | 0 mm | - | 419 W/m² | - |
| 1788015501 | 27.22° C | 65% | 1025.8 hPa | 0 mm | - | 489 W/m² | - |
| 1788015197 | 27.22° C | 65% | 1025.7 hPa | 0 mm | - | 476 W/m² | - |
| 1788014895 | 26.67° C | 67% | 1025.8 hPa | 0 mm | - | 438 W/m² | - |
| 1788014590 | 26.67° C | 67% | 1025.7 hPa | 0 mm | - | 489 W/m² | - |
| 1788014285 | 26.67° C | 65% | 1025.7 hPa | 0 mm | - | 502 W/m² | - |
| 1788013980 | 26.67° C | 65% | 1025.8 hPa | 0 mm | - | 462 W/m² | - |
| 1788013674 | 26.67° C | 67% | 1025.9 hPa | 0 mm | - | 385 W/m² | - |
| 1788013369 | 26.11° C | 69% | 1025.9 hPa | 0 mm | - | 390 W/m² | - |
| 1788013069 | 25.56° C | 70% | 1025.8 hPa | 0 mm | - | 358 W/m² | - |
| 1788012768 | 25.56° C | 70% | 1025.6 hPa | 0 mm | - | 311 W/m² | - |
| 1788012463 | 25° C | 72% | 1025.7 hPa | 0 mm | - | 325 W/m² | - |
| 1788012163 | 24.44° C | 74% | 1025.7 hPa | 0 mm | - | 394 W/m² | - |
| 1788011862 | 24.44° C | 72% | 1025.9 hPa | 0 mm | - | 435 W/m² | - |
* Rain latest hour (hover to see other rain measurements)
** Current wind speed in m/s (hover to see current wind gust speed)